Time,TemperatureF,DewpointF,PressureIn,WindDirection,WindDirectionDegrees,WindSpeedMPH,WindSpeedGustMPH,Humidity,HourlyPrecipIn,Conditions,Clouds,dailyrainin,SoftwareType,DateUTC
2013-03-07 00:00:00,37.4,26.4,30.02,North,0,0.0,0.0,64,0.00,,,0.00,WUHU216HW,2013-03-07 05:00:00,
2013-03-07 00:01:00,37.4,26.4,30.02,North,0,0.0,0.0,64,0.00,,,0.00,WUHU216HW,2013-03-07 05:01:00,
2013-03-07 00:06:00,37.3,26.2,30.02,North,0,0.0,0.0,64,0.00,,,0.00,WUHU216HW,2013-03-07 05:06:00,
2013-03-07 00:11:00,37.1,26.4,30.01,North,0,0.0,0.0,65,0.00,,,0.00,WUHU216HW,2013-03-07 05:11:00,
2013-03-07 00:16:00,37.1,26.4,30.01,North,0,0.0,0.0,65,0.00,,,0.00,WUHU216HW,2013-03-07 05:16:00,
2013-03-07 00:21:00,36.9,26.2,30.02,North,0,0.0,0.0,65,0.00,,,0.00,WUHU216HW,2013-03-07 05:21:00,
2013-03-07 00:26:00,36.9,26.2,30.02,North,0,0.0,0.0,65,0.00,,,0.00,WUHU216HW,2013-03-07 05:26:00,
2013-03-07 00:31:00,36.5,26.3,30.02,North,0,0.0,0.0,66,0.00,,,0.00,WUHU216HW,2013-03-07 05:31:00,
2013-03-07 00:36:00,36.4,26.1,30.01,North,0,0.0,0.0,66,0.00,,,0.00,WUHU216HW,2013-03-07 05:36:00,
2013-03-07 00:41:00,36.2,25.9,30.01,North,0,0.0,0.0,66,0.00,,,0.00,WUHU216HW,2013-03-07 05:41:00,
2013-03-07 00:46:00,36.2,25.9,30.02,North,0,0.0,0.0,66,0.00,,,0.00,WUHU216HW,2013-03-07 05:46:00,
2013-03-07 00:51:00,36.2,26.3,30.02,North,0,0.0,0.0,67,0.00,,,0.00,WUHU216HW,2013-03-07 05:51:00,
2013-03-07 00:56:00,36.0,26.1,30.02,North,0,0.0,0.0,67,0.00,,,0.00,WUHU216HW,2013-03-07 05:56:00,
2013-03-07 01:01:00,36.0,26.1,30.02,North,0,0.0,0.0,67,0.00,,,0.00,WUHU216HW,2013-03-07 06:01:00,
2013-03-07 01:06:00,36.0,26.1,30.02,North,0,0.0,0.0,67,0.00,,,0.00,WUHU216HW,2013-03-07 06:06:00,
2013-03-07 01:11:00,35.8,25.9,30.03,North,0,0.0,0.0,67,0.00,,,0.00,WUHU216HW,2013-03-07 06:11:00,
2013-03-07 01:16:00,35.8,25.9,30.03,North,0,0.0,0.0,67,0.00,,,0.00,WUHU216HW,2013-03-07 06:16:00,
2013-03-07 01:22:00,35.6,25.7,30.03,North,0,0.0,0.0,67,0.00,,,0.00,WUHU216HW,2013-03-07 06:22:00,
2013-03-07 01:27:00,35.6,25.7,30.03,North,0,0.0,0.0,67,0.00,,,0.00,WUHU216HW,2013-03-07 06:27:00,
2013-03-07 01:32:00,35.5,25.9,30.03,North,0,0.0,0.0,68,0.00,,,0.00,WUHU216HW,2013-03-07 06:32:00,
2013-03-07 01:37:00,35.5,25.9,30.03,North,0,0.0,0.0,68,0.00,,,0.00,WUHU216HW,2013-03-07 06:37:00,
2013-03-07 01:42:00,35.3,25.7,30.03,North,0,0.0,0.0,68,0.00,,,0.00,WUHU216HW,2013-03-07 06:42:00,
2013-03-07 01:47:00,35.3,26.1,30.03,North,0,0.0,0.0,69,0.00,,,0.00,WUHU216HW,2013-03-07 06:47:00,
2013-03-07 01:52:00,35.1,25.9,30.03,North,0,0.0,0.0,69,0.00,,,0.00,WUHU216HW,2013-03-07 06:52:00,
2013-03-07 01:57:00,35.1,25.9,30.02,North,0,0.0,0.0,69,0.00,,,0.00,WUHU216HW,2013-03-07 06:57:00,
2013-03-07 02:02:00,34.9,25.7,30.02,North,0,0.0,0.0,69,0.00,,,0.00,WUHU216HW,2013-03-07 07:02:00,
2013-03-07 02:07:00,34.9,25.7,30.02,North,0,0.0,0.0,69,0.00,,,0.00,WUHU216HW,2013-03-07 07:07:00,
2013-03-07 02:12:00,34.9,25.7,30.02,North,0,0.0,0.0,69,0.00,,,0.00,WUHU216HW,2013-03-07 07:12:00,
2013-03-07 02:17:00,34.7,25.9,30.03,North,0,0.0,0.0,70,0.00,,,0.00,WUHU216HW,2013-03-07 07:17:00,
2013-03-07 02:23:00,34.7,25.9,30.03,North,0,0.0,0.0,70,0.00,,,0.00,WUHU216HW,2013-03-07 07:23:00,
2013-03-07 02:28:00,34.6,25.7,30.03,North,0,0.0,0.0,70,0.00,,,0.00,WUHU216HW,2013-03-07 07:28:00,
2013-03-07 02:33:00,34.6,25.7,30.03,North,0,0.0,0.0,70,0.00,,,0.00,WUHU216HW,2013-03-07 07:33:00,
2013-03-07 02:38:00,34.6,25.7,30.03,North,0,0.0,0.0,70,0.00,,,0.00,WUHU216HW,2013-03-07 07:38:00,
2013-03-07 02:43:00,34.6,25.7,30.02,North,0,0.0,0.0,70,0.00,,,0.00,WUHU216HW,2013-03-07 07:43:00,
2013-03-07 02:48:00,34.4,25.6,30.02,North,0,0.0,0.0,70,0.00,,,0.00,WUHU216HW,2013-03-07 07:48:00,
2013-03-07 02:53:00,34.4,25.6,30.02,North,0,0.0,0.0,70,0.00,,,0.00,WUHU216HW,2013-03-07 07:53:00,
2013-03-07 02:58:00,34.2,25.4,30.02,North,0,0.0,0.0,70,0.00,,,0.00,WUHU216HW,2013-03-07 07:58:00,
2013-03-07 03:03:00,34.2,25.4,30.02,North,0,0.0,0.0,70,0.00,,,0.00,WUHU216HW,2013-03-07 08:03:00,
2013-03-07 03:08:00,34.2,25.4,30.02,North,0,0.0,0.0,70,0.00,,,0.00,WUHU216HW,2013-03-07 08:08:00,
2013-03-07 03:13:00,34.0,25.2,30.01,North,0,0.0,0.0,70,0.00,,,0.00,WUHU216HW,2013-03-07 08:13:00,
2013-03-07 03:18:00,33.8,25.0,30.02,North,0,0.0,0.0,70,0.00,,,0.00,WUHU216HW,2013-03-07 08:18:00,
2013-03-07 03:23:00,33.8,25.0,30.02,North,0,0.0,0.0,70,0.00,,,0.00,WUHU216HW,2013-03-07 08:23:00,
2013-03-07 03:28:00,33.8,25.0,30.02,North,0,0.0,0.0,70,0.00,,,0.00,WUHU216HW,2013-03-07 08:28:00,
2013-03-07 03:34:00,33.7,24.8,30.03,North,0,0.0,0.0,70,0.00,,,0.00,WUHU216HW,2013-03-07 08:34:00,
2013-03-07 03:39:00,33.7,24.8,30.03,North,0,0.0,0.0,70,0.00,,,0.00,WUHU216HW,2013-03-07 08:39:00,
2013-03-07 03:44:00,33.7,24.8,30.03,North,0,0.0,0.0,70,0.00,,,0.00,WUHU216HW,2013-03-07 08:44:00,
2013-03-07 03:49:00,33.5,25.0,30.02,North,0,0.0,0.0,71,0.00,,,0.00,WUHU216HW,2013-03-07 08:49:00,
2013-03-07 03:54:00,33.5,25.0,30.03,North,0,0.0,0.0,71,0.00,,,0.00,WUHU216HW,2013-03-07 08:54:00,
2013-03-07 03:59:00,33.5,25.0,30.03,North,0,0.0,0.0,71,0.00,,,0.00,WUHU216HW,2013-03-07 08:59:00,
2013-03-07 04:04:00,33.5,25.0,30.04,North,0,0.0,0.0,71,0.00,,,0.00,WUHU216HW,2013-03-07 09:04:00,
2013-03-07 04:09:00,33.5,25.0,30.04,North,0,0.0,0.0,71,0.00,,,0.00,WUHU216HW,2013-03-07 09:09:00,
2013-03-07 04:15:00,33.3,24.8,30.04,North,0,0.0,0.0,71,0.00,,,0.00,WUHU216HW,2013-03-07 09:15:00,
2013-03-07 04:20:00,33.3,24.8,30.04,North,0,0.0,0.0,71,0.00,,,0.00,WUHU216HW,2013-03-07 09:20:00,
2013-03-07 04:25:00,33.3,24.8,30.04,North,0,0.0,0.0,71,0.00,,,0.00,WUHU216HW,2013-03-07 09:25:00,
2013-03-07 04:30:00,33.3,25.2,30.04,North,0,0.0,0.0,72,0.00,,,0.00,WUHU216HW,2013-03-07 09:30:00,
2013-03-07 04:35:00,33.3,25.2,30.04,North,0,0.0,0.0,72,0.00,,,0.00,WUHU216HW,2013-03-07 09:35:00,
2013-03-07 04:40:00,33.1,25.0,30.04,North,0,0.0,0.0,72,0.00,,,0.00,WUHU216HW,2013-03-07 09:40:00,
2013-03-07 04:45:00,33.1,25.0,30.04,North,0,0.0,0.0,72,0.00,,,0.00,WUHU216HW,2013-03-07 09:45:00,
2013-03-07 04:51:00,33.1,25.0,30.04,North,0,0.0,0.0,72,0.00,,,0.00,WUHU216HW,2013-03-07 09:51:00,
2013-03-07 04:56:00,33.1,25.0,30.05,North,0,0.0,0.0,72,0.00,,,0.00,WUHU216HW,2013-03-07 09:56:00,
2013-03-07 05:01:00,33.1,25.0,30.05,North,0,0.0,0.0,72,0.00,,,0.00,WUHU216HW,2013-03-07 10:01:00,
2013-03-07 05:06:00,32.9,24.8,30.05,North,0,0.0,0.0,72,0.00,,,0.00,WUHU216HW,2013-03-07 10:06:00,
2013-03-07 05:11:00,32.9,24.8,30.05,North,0,0.0,0.0,72,0.00,,,0.00,WUHU216HW,2013-03-07 10:11:00,
2013-03-07 05:16:00,32.9,24.8,30.05,North,0,0.0,0.0,72,0.00,,,0.00,WUHU216HW,2013-03-07 10:16:00,
2013-03-07 05:21:00,32.9,24.8,30.06,North,0,0.0,0.0,72,0.00,,,0.00,WUHU216HW,2013-03-07 10:21:00,
2013-03-07 05:26:00,32.8,24.7,30.06,North,0,0.0,0.0,72,0.00,,,0.00,WUHU216HW,2013-03-07 10:26:00,
2013-03-07 05:31:00,32.8,24.7,30.06,North,0,0.0,0.0,72,0.00,,,0.00,WUHU216HW,2013-03-07 10:31:00,
2013-03-07 05:36:00,32.8,25.0,30.07,North,0,0.0,0.0,73,0.00,,,0.00,WUHU216HW,2013-03-07 10:36:00,
2013-03-07 05:41:00,32.8,25.0,30.07,North,0,0.0,0.0,73,0.00,,,0.00,WUHU216HW,2013-03-07 10:41:00,
2013-03-07 05:46:00,32.6,24.8,30.07,North,0,0.0,0.0,73,0.00,,,0.00,WUHU216HW,2013-03-07 10:46:00,
2013-03-07 05:51:00,32.6,24.8,30.07,North,0,0.0,0.0,73,0.00,,,0.00,WUHU216HW,2013-03-07 10:51:00,
2013-03-07 05:57:00,32.6,24.8,30.07,North,0,0.0,0.0,73,0.00,,,0.00,WUHU216HW,2013-03-07 10:57:00,
2013-03-07 06:02:00,32.6,24.8,30.07,North,0,0.0,0.0,73,0.00,,,0.00,WUHU216HW,2013-03-07 11:02:00,
2013-03-07 06:07:00,32.4,24.7,30.07,North,0,0.0,0.0,73,0.00,,,0.00,WUHU216HW,2013-03-07 11:07:00,
2013-03-07 06:12:00,32.4,24.7,30.08,North,0,0.0,0.0,73,0.00,,,0.00,WUHU216HW,2013-03-07 11:12:00,
2013-03-07 06:17:00,32.4,24.7,30.08,North,0,0.0,0.0,73,0.00,,,0.00,WUHU216HW,2013-03-07 11:17:00,
2013-03-07 06:22:00,32.4,24.7,30.08,North,0,0.0,0.0,73,0.00,,,0.00,WUHU216HW,2013-03-07 11:22:00,
2013-03-07 06:27:00,32.2,24.8,30.08,North,0,0.0,0.0,74,0.00,,,0.00,WUHU216HW,2013-03-07 11:27:00,
2013-03-07 06:32:00,32.2,24.8,30.08,North,0,0.0,0.0,74,0.00,,,0.00,WUHU216HW,2013-03-07 11:32:00,
2013-03-07 06:37:00,32.2,24.8,30.08,North,0,0.0,0.0,74,0.00,,,0.00,WUHU216HW,2013-03-07 11:37:00,
2013-03-07 06:42:00,32.2,24.8,30.09,North,0,0.0,0.0,74,0.00,,,0.00,WUHU216HW,2013-03-07 11:42:00,
2013-03-07 06:47:00,32.0,24.7,30.09,North,0,0.0,0.0,74,0.00,,,0.00,WUHU216HW,2013-03-07 11:47:00,
2013-03-07 06:52:00,32.2,24.8,30.09,North,0,0.0,0.0,74,0.00,,,0.00,WUHU216HW,2013-03-07 11:52:00,
2013-03-07 06:57:00,32.0,24.7,30.09,North,0,0.0,0.0,74,0.00,,,0.00,WUHU216HW,2013-03-07 11:57:00,
2013-03-07 07:02:00,32.0,24.7,30.09,North,0,0.0,0.0,74,0.00,,,0.00,WUHU216HW,2013-03-07 12:02:00,
2013-03-07 07:07:00,32.0,24.7,30.09,North,0,0.0,0.0,74,0.00,,,0.00,WUHU216HW,2013-03-07 12:07:00,
2013-03-07 07:12:00,32.0,25.0,30.09,North,0,0.0,0.0,75,0.00,,,0.00,WUHU216HW,2013-03-07 12:12:00,
2013-03-07 07:17:00,32.2,25.2,30.09,North,0,0.0,0.0,75,0.00,,,0.00,WUHU216HW,2013-03-07 12:17:00,
2013-03-07 07:23:00,32.2,25.2,30.10,North,0,0.0,0.0,75,0.00,,,0.00,WUHU216HW,2013-03-07 12:23:00,
2013-03-07 07:28:00,32.4,25.4,30.10,North,0,0.0,0.0,75,0.00,,,0.00,WUHU216HW,2013-03-07 12:28:00,
2013-03-07 07:33:00,32.6,25.5,30.11,North,0,0.0,0.0,75,0.00,,,0.00,WUHU216HW,2013-03-07 12:33:00,
2013-03-07 07:38:00,32.8,26.0,30.11,North,0,0.0,0.0,76,0.00,,,0.00,WUHU216HW,2013-03-07 12:38:00,
2013-03-07 07:43:00,32.8,26.0,30.11,North,0,0.0,0.0,76,0.00,,,0.00,WUHU216HW,2013-03-07 12:43:00,
2013-03-07 07:48:00,32.9,26.2,30.11,North,0,0.0,0.0,76,0.00,,,0.00,WUHU216HW,2013-03-07 12:48:00,
2013-03-07 07:53:00,33.3,26.5,30.12,North,0,0.0,0.0,76,0.00,,,0.00,WUHU216HW,2013-03-07 12:53:00,
2013-03-07 07:58:00,33.5,26.6,30.11,North,0,0.0,0.0,76,0.00,,,0.00,WUHU216HW,2013-03-07 12:58:00,
2013-03-07 08:03:00,34.2,27.6,30.12,North,0,0.0,0.0,77,0.00,,,0.00,WUHU216HW,2013-03-07 13:03:00,
2013-03-07 08:08:00,34.6,27.7,30.11,North,0,0.0,0.0,76,0.00,,,0.00,WUHU216HW,2013-03-07 13:08:00,
2013-03-07 08:13:00,35.1,28.3,30.11,North,0,0.0,0.0,76,0.00,,,0.00,WUHU216HW,2013-03-07 13:13:00,
2013-03-07 08:18:00,35.6,28.4,30.12,North,0,0.0,0.0,75,0.00,,,0.00,WUHU216HW,2013-03-07 13:18:00,
2013-03-07 08:24:00,36.2,29.0,30.12,North,0,0.0,0.0,75,0.00,,,0.00,WUHU216HW,2013-03-07 13:24:00,
2013-03-07 08:29:00,36.7,29.5,30.12,North,0,0.0,0.0,75,0.00,,,0.00,WUHU216HW,2013-03-07 13:29:00,
2013-03-07 08:34:00,37.4,30.2,30.12,North,0,0.0,0.0,75,0.00,,,0.00,WUHU216HW,2013-03-07 13:34:00,
2013-03-07 08:39:00,38.2,30.6,30.11,North,0,0.0,0.0,74,0.00,,,0.00,WUHU216HW,2013-03-07 13:39:00,
2013-03-07 08:44:00,38.7,30.8,30.11,North,0,0.0,0.0,73,0.00,,,0.00,WUHU216HW,2013-03-07 13:44:00,
2013-03-07 08:49:00,39.1,30.8,30.11,North,0,0.0,0.0,72,0.00,,,0.00,WUHU216HW,2013-03-07 13:49:00,
2013-03-07 08:54:00,39.6,31.0,30.12,North,0,0.0,0.0,71,0.00,,,0.00,WUHU216HW,2013-03-07 13:54:00,
2013-03-07 08:59:00,40.1,31.5,30.11,North,0,0.0,0.0,71,0.00,,,0.00,WUHU216HW,2013-03-07 13:59:00,
2013-03-07 09:04:00,40.7,31.7,30.11,North,0,0.0,0.0,70,0.00,,,0.00,WUHU216HW,2013-03-07 14:04:00,
2013-03-07 09:09:00,40.9,31.5,30.11,North,0,0.0,0.0,69,0.00,,,0.00,WUHU216HW,2013-03-07 14:09:00,
2013-03-07 09:14:00,41.0,31.3,30.11,North,0,0.0,0.0,68,0.00,,,0.00,WUHU216HW,2013-03-07 14:14:00,
2013-03-07 09:19:00,41.4,31.2,30.12,North,0,0.0,0.0,67,0.00,,,0.00,WUHU216HW,2013-03-07 14:19:00,
2013-03-07 09:24:00,41.8,31.6,30.11,North,0,0.0,0.0,67,0.00,,,0.00,WUHU216HW,2013-03-07 14:24:00,
2013-03-07 09:29:00,42.1,31.1,30.12,North,0,0.0,0.0,65,0.00,,,0.00,WUHU216HW,2013-03-07 14:29:00,
2013-03-07 09:35:00,42.1,31.1,30.12,North,0,0.0,0.0,65,0.00,,,0.00,WUHU216HW,2013-03-07 14:35:00,
2013-03-07 09:40:00,42.5,31.5,30.12,North,0,0.0,0.0,65,0.00,,,0.00,WUHU216HW,2013-03-07 14:40:00,
2013-03-07 09:45:00,43.0,32.1,30.11,North,0,0.0,0.0,65,0.00,,,0.00,WUHU216HW,2013-03-07 14:45:00,
2013-03-07 09:50:00,43.4,32.4,30.12,North,0,0.0,0.0,65,0.00,,,0.00,WUHU216HW,2013-03-07 14:50:00,
2013-03-07 09:55:00,43.7,31.6,30.12,North,0,0.0,0.0,62,0.00,,,0.00,WUHU216HW,2013-03-07 14:55:00,
2013-03-07 10:00:00,44.1,32.3,30.12,North,0,0.0,0.0,63,0.00,,,0.00,WUHU216HW,2013-03-07 15:00:00,
2013-03-07 10:05:00,44.3,32.5,30.12,North,0,0.0,0.0,63,0.00,,,0.00,WUHU216HW,2013-03-07 15:05:00,
2013-03-07 10:10:00,44.8,32.9,30.12,North,0,0.0,0.0,63,0.00,,,0.00,WUHU216HW,2013-03-07 15:10:00,
2013-03-07 10:15:00,45.0,32.1,30.12,North,0,0.0,0.0,60,0.00,,,0.00,WUHU216HW,2013-03-07 15:15:00,
2013-03-07 10:20:00,45.0,32.1,30.12,North,0,0.0,0.0,60,0.00,,,0.00,WUHU216HW,2013-03-07 15:20:00,
2013-03-07 10:25:00,45.0,31.2,30.12,North,0,0.0,0.0,58,0.00,,,0.00,WUHU216HW,2013-03-07 15:25:00,
2013-03-07 10:30:00,45.2,31.7,30.12,North,0,0.0,0.0,59,0.00,,,0.00,WUHU216HW,2013-03-07 15:30:00,
2013-03-07 10:35:00,45.7,32.7,30.12,North,0,0.0,0.0,60,0.00,,,0.00,WUHU216HW,2013-03-07 15:35:00,
2013-03-07 10:40:00,46.3,32.7,30.12,North,0,0.0,0.0,59,0.00,,,0.00,WUHU216HW,2013-03-07 15:40:00,
2013-03-07 10:46:00,46.4,32.9,30.12,North,0,0.0,0.0,59,0.00,,,0.00,WUHU216HW,2013-03-07 15:46:00,
2013-03-07 10:51:00,46.6,33.0,30.11,North,0,0.0,0.0,59,0.00,,,0.00,WUHU216HW,2013-03-07 15:51:00,
2013-03-07 10:56:00,47.0,33.0,30.11,North,0,0.0,0.0,58,0.00,,,0.00,WUHU216HW,2013-03-07 15:56:00,
2013-03-07 11:01:00,47.2,33.6,30.11,North,0,0.0,0.0,59,0.00,,,0.00,WUHU216HW,2013-03-07 16:01:00,
2013-03-07 11:06:00,47.3,33.8,30.10,North,0,0.0,0.0,59,0.00,,,0.00,WUHU216HW,2013-03-07 16:06:00,
2013-03-07 11:11:00,47.5,33.5,30.11,North,0,0.0,0.0,58,0.00,,,0.00,WUHU216HW,2013-03-07 16:11:00,
2013-03-07 11:16:00,47.5,33.5,30.10,North,0,0.0,0.0,58,0.00,,,0.00,WUHU216HW,2013-03-07 16:16:00,
2013-03-07 11:21:00,47.9,33.9,30.11,North,0,0.0,0.0,58,0.00,,,0.00,WUHU216HW,2013-03-07 16:21:00,
2013-03-07 11:26:00,48.1,33.5,30.10,North,0,0.0,0.0,57,0.00,,,0.00,WUHU216HW,2013-03-07 16:26:00,
2013-03-07 11:31:00,48.4,33.8,30.10,North,0,0.0,0.0,57,0.00,,,0.00,WUHU216HW,2013-03-07 16:31:00,
2013-03-07 11:36:00,48.2,33.7,30.10,North,0,0.0,0.0,57,0.00,,,0.00,WUHU216HW,2013-03-07 16:36:00,
2013-03-07 11:41:00,48.4,33.4,30.10,North,0,0.0,0.0,56,0.00,,,0.00,WUHU216HW,2013-03-07 16:41:00,
2013-03-07 11:46:00,48.6,33.6,30.10,North,0,0.0,0.0,56,0.00,,,0.00,WUHU216HW,2013-03-07 16:46:00,
2013-03-07 11:51:00,49.0,33.5,30.09,North,0,0.0,0.0,55,0.00,,,0.00,WUHU216HW,2013-03-07 16:51:00,
2013-03-07 11:56:00,48.4,32.1,30.09,North,0,0.0,0.0,53,0.00,,,0.00,WUHU216HW,2013-03-07 16:56:00,
2013-03-07 12:01:00,48.4,32.5,30.09,North,0,0.0,0.0,54,0.00,,,0.00,WUHU216HW,2013-03-07 17:01:00,
2013-03-07 12:07:00,49.0,33.9,30.09,North,0,0.0,0.0,56,0.00,,,0.00,WUHU216HW,2013-03-07 17:07:00,
2013-03-07 12:12:00,49.7,34.1,30.08,North,0,0.0,0.0,55,0.00,,,0.00,WUHU216HW,2013-03-07 17:12:00,
2013-03-07 12:17:00,50.0,34.5,30.08,North,0,0.0,0.0,55,0.00,,,0.00,WUHU216HW,2013-03-07 17:17:00,
2013-03-07 12:22:00,49.7,33.7,30.08,North,0,0.0,0.0,54,0.00,,,0.00,WUHU216HW,2013-03-07 17:22:00,
2013-03-07 12:27:00,49.7,32.8,30.07,North,0,0.0,0.0,52,0.00,,,0.00,WUHU216HW,2013-03-07 17:27:00,
2013-03-07 12:32:00,50.0,33.6,30.07,North,0,0.0,0.0,53,0.00,,,0.00,WUHU216HW,2013-03-07 17:32:00,
2013-03-07 12:37:00,50.2,33.3,30.07,North,0,0.0,0.0,52,0.00,,,0.00,WUHU216HW,2013-03-07 17:37:00,
2013-03-07 12:42:00,50.2,32.4,30.07,North,0,0.0,0.0,50,0.00,,,0.00,WUHU216HW,2013-03-07 17:42:00,
2013-03-07 12:47:00,50.4,33.0,30.07,North,0,0.0,0.0,51,0.00,,,0.00,WUHU216HW,2013-03-07 17:47:00,
2013-03-07 12:52:00,50.6,33.1,30.06,North,0,0.0,0.0,51,0.00,,,0.00,WUHU216HW,2013-03-07 17:52:00,
2013-03-07 12:57:00,50.8,33.3,30.06,North,0,0.0,0.0,51,0.00,,,0.00,WUHU216HW,2013-03-07 17:57:00,
2013-03-07 13:02:00,51.1,33.7,30.06,North,0,0.0,0.0,51,0.00,,,0.00,WUHU216HW,2013-03-07 18:02:00,
2013-03-07 13:07:00,51.7,34.6,30.05,North,0,0.0,0.0,52,0.00,,,0.00,WUHU216HW,2013-03-07 18:07:00,
2013-03-07 13:12:00,52.0,34.0,30.06,North,0,0.0,0.0,50,0.00,,,0.00,WUHU216HW,2013-03-07 18:12:00,
2013-03-07 13:17:00,52.2,34.2,30.05,North,0,0.0,0.0,50,0.00,,,0.00,WUHU216HW,2013-03-07 18:17:00,
2013-03-07 13:22:00,52.6,34.9,30.05,North,0,0.0,0.0,51,0.00,,,0.00,WUHU216HW,2013-03-07 18:22:00,
2013-03-07 13:27:00,52.9,34.8,30.05,North,0,0.0,0.0,50,0.00,,,0.00,WUHU216HW,2013-03-07 18:27:00,
2013-03-07 13:33:00,53.1,35.0,30.05,North,0,0.0,0.0,50,0.00,,,0.00,WUHU216HW,2013-03-07 18:33:00,
2013-03-07 13:38:00,53.5,34.2,30.04,North,0,0.0,0.0,48,0.00,,,0.00,WUHU216HW,2013-03-07 18:38:00,
2013-03-07 13:43:00,53.5,34.2,30.04,North,0,0.0,0.0,48,0.00,,,0.00,WUHU216HW,2013-03-07 18:43:00,
2013-03-07 13:48:00,53.1,33.3,30.04,North,0,0.0,0.0,47,0.00,,,0.00,WUHU216HW,2013-03-07 18:48:00,
2013-03-07 13:53:00,52.9,33.1,30.04,North,0,0.0,0.0,47,0.00,,,0.00,WUHU216HW,2013-03-07 18:53:00,
2013-03-07 13:58:00,52.6,32.9,30.04,North,0,0.0,0.0,47,0.00,,,0.00,WUHU216HW,2013-03-07 18:58:00,
2013-03-07 14:03:00,52.7,33.6,30.04,North,0,0.0,0.0,48,0.00,,,0.00,WUHU216HW,2013-03-07 19:03:00,
2013-03-07 14:08:00,53.5,33.0,30.04,North,0,0.0,0.0,46,0.00,,,0.00,WUHU216HW,2013-03-07 19:08:00,
2013-03-07 14:13:00,53.5,33.7,30.04,North,0,0.0,0.0,47,0.00,,,0.00,WUHU216HW,2013-03-07 19:13:00,
2013-03-07 14:18:00,53.6,33.8,30.04,North,0,0.0,0.0,47,0.00,,,0.00,WUHU216HW,2013-03-07 19:18:00,
2013-03-07 14:23:00,53.6,33.8,30.04,North,0,0.0,0.0,47,0.00,,,0.00,WUHU216HW,2013-03-07 19:23:00,
2013-03-07 14:28:00,53.6,33.2,30.04,North,0,0.0,0.0,46,0.00,,,0.00,WUHU216HW,2013-03-07 19:28:00,
2013-03-07 14:33:00,54.0,34.1,30.04,North,0,0.0,0.0,47,0.00,,,0.00,WUHU216HW,2013-03-07 19:33:00,
2013-03-07 14:38:00,54.4,34.5,30.03,North,0,0.0,0.0,47,0.00,,,0.00,WUHU216HW,2013-03-07 19:38:00,
2013-03-07 14:43:00,54.7,34.7,30.04,North,0,0.0,0.0,47,0.00,,,0.00,WUHU216HW,2013-03-07 19:43:00,
2013-03-07 14:48:00,54.5,35.2,30.04,North,0,0.0,0.0,48,0.00,,,0.00,WUHU216HW,2013-03-07 19:48:00,
2013-03-07 14:54:00,54.7,35.3,30.03,North,0,0.0,0.0,48,0.00,,,0.00,WUHU216HW,2013-03-07 19:54:00,
2013-03-07 14:59:00,54.7,34.7,30.03,North,0,0.0,0.0,47,0.00,,,0.00,WUHU216HW,2013-03-07 19:59:00,
2013-03-07 15:04:00,54.7,34.7,30.03,North,0,0.0,0.0,47,0.00,,,0.00,WUHU216HW,2013-03-07 20:04:00,
2013-03-07 15:09:00,55.1,35.1,30.04,North,0,0.0,0.0,47,0.00,,,0.00,WUHU216HW,2013-03-07 20:09:00,
2013-03-07 15:14:00,54.9,34.9,30.04,North,0,0.0,0.0,47,0.00,,,0.00,WUHU216HW,2013-03-07 20:14:00,
2013-03-07 15:19:00,54.7,34.7,30.03,North,0,0.0,0.0,47,0.00,,,0.00,WUHU216HW,2013-03-07 20:19:00,
2013-03-07 15:24:00,54.7,33.1,30.03,North,0,0.0,0.0,44,0.00,,,0.00,WUHU216HW,2013-03-07 20:24:00,
2013-03-07 15:29:00,54.9,34.4,30.03,North,0,0.0,0.0,46,0.00,,,0.00,WUHU216HW,2013-03-07 20:29:00,
2013-03-07 15:34:00,55.1,34.6,30.03,North,0,0.0,0.0,46,0.00,,,0.00,WUHU216HW,2013-03-07 20:34:00,
2013-03-07 15:39:00,54.9,34.4,30.03,North,0,0.0,0.0,46,0.00,,,0.00,WUHU216HW,2013-03-07 20:39:00,
2013-03-07 15:44:00,55.1,35.1,30.03,North,0,0.0,0.0,47,0.00,,,0.00,WUHU216HW,2013-03-07 20:44:00,
2013-03-07 15:49:00,55.1,34.6,30.03,North,0,0.0,0.0,46,0.00,,,0.00,WUHU216HW,2013-03-07 20:49:00,
2013-03-07 15:54:00,55.3,34.7,30.03,North,0,0.0,0.0,46,0.00,,,0.00,WUHU216HW,2013-03-07 20:54:00,
2013-03-07 15:59:00,55.1,33.9,30.02,North,0,0.0,0.0,45,0.00,,,0.00,WUHU216HW,2013-03-07 20:59:00,
2013-03-07 16:04:00,55.1,34.6,30.03,North,0,0.0,0.0,46,0.00,,,0.00,WUHU216HW,2013-03-07 21:04:00,
2013-03-07 16:10:00,55.4,34.8,30.02,North,0,0.0,0.0,46,0.00,,,0.00,WUHU216HW,2013-03-07 21:10:00,
2013-03-07 16:15:00,55.4,34.8,30.03,North,0,0.0,0.0,46,0.00,,,0.00,WUHU216HW,2013-03-07 21:15:00,
2013-03-07 16:20:00,55.4,34.3,30.02,North,0,0.0,0.0,45,0.00,,,0.00,WUHU216HW,2013-03-07 21:20:00,
2013-03-07 16:25:00,55.1,33.9,30.02,North,0,0.0,0.0,45,0.00,,,0.00,WUHU216HW,2013-03-07 21:25:00,
2013-03-07 16:30:00,55.1,33.9,30.02,North,0,0.0,0.0,45,0.00,,,0.00,WUHU216HW,2013-03-07 21:30:00,
2013-03-07 16:35:00,55.1,33.9,30.02,North,0,0.0,0.0,45,0.00,,,0.00,WUHU216HW,2013-03-07 21:35:00,
2013-03-07 16:40:00,55.1,33.9,30.03,North,0,0.0,0.0,45,0.00,,,0.00,WUHU216HW,2013-03-07 21:40:00,
2013-03-07 16:45:00,54.9,33.9,30.02,North,0,0.0,0.0,45,0.00,,,0.00,WUHU216HW,2013-03-07 21:45:00,
2013-03-07 16:50:00,55.1,33.9,30.03,North,0,0.0,0.0,45,0.00,,,0.00,WUHU216HW,2013-03-07 21:50:00,
2013-03-07 16:55:00,55.1,33.9,30.03,North,0,0.0,0.0,45,0.00,,,0.00,WUHU216HW,2013-03-07 21:55:00,
2013-03-07 17:00:00,55.1,33.9,30.03,North,0,0.0,0.0,45,0.00,,,0.00,WUHU216HW,2013-03-07 22:00:00,
2013-03-07 17:06:00,55.1,33.9,30.03,North,0,0.0,0.0,45,0.00,,,0.00,WUHU216HW,2013-03-07 22:06:00,
2013-03-07 17:11:00,54.9,33.9,30.03,North,0,0.0,0.0,45,0.00,,,0.00,WUHU216HW,2013-03-07 22:11:00,
2013-03-07 17:16:00,54.9,33.9,30.03,North,0,0.0,0.0,45,0.00,,,0.00,WUHU216HW,2013-03-07 22:16:00,
2013-03-07 17:21:00,54.7,33.7,30.03,North,0,0.0,0.0,45,0.00,,,0.00,WUHU216HW,2013-03-07 22:21:00,
2013-03-07 17:26:00,54.5,33.5,30.04,North,0,0.0,0.0,45,0.00,,,0.00,WUHU216HW,2013-03-07 22:26:00,
2013-03-07 17:31:00,54.4,33.3,30.04,North,0,0.0,0.0,45,0.00,,,0.00,WUHU216HW,2013-03-07 22:31:00,
2013-03-07 17:36:00,54.4,33.3,30.04,North,0,0.0,0.0,45,0.00,,,0.00,WUHU216HW,2013-03-07 22:36:00,
2013-03-07 17:41:00,54.4,33.3,30.04,North,0,0.0,0.0,45,0.00,,,0.00,WUHU216HW,2013-03-07 22:41:00,
2013-03-07 17:46:00,54.4,33.8,30.04,North,0,0.0,0.0,46,0.00,,,0.00,WUHU216HW,2013-03-07 22:46:00,
2013-03-07 17:51:00,54.2,33.1,30.04,North,0,0.0,0.0,45,0.00,,,0.00,WUHU216HW,2013-03-07 22:51:00,
2013-03-07 17:57:00,54.0,33.0,30.04,North,0,0.0,0.0,45,0.00,,,0.00,WUHU216HW,2013-03-07 22:57:00,
2013-03-07 18:02:00,53.8,32.9,30.04,North,0,0.0,0.0,45,0.00,,,0.00,WUHU216HW,2013-03-07 23:02:00,
2013-03-07 18:07:00,53.8,33.4,30.05,North,0,0.0,0.0,46,0.00,,,0.00,WUHU216HW,2013-03-07 23:07:00,
2013-03-07 18:12:00,54.0,34.1,30.05,North,0,0.0,0.0,47,0.00,,,0.00,WUHU216HW,2013-03-07 23:12:00,
2013-03-07 18:17:00,54.0,33.6,30.05,North,0,0.0,0.0,46,0.00,,,0.00,WUHU216HW,2013-03-07 23:17:00,
2013-03-07 18:22:00,53.6,33.2,30.05,North,0,0.0,0.0,46,0.00,,,0.00,WUHU216HW,2013-03-07 23:22:00,
2013-03-07 18:27:00,53.3,33.0,30.06,North,0,0.0,0.0,46,0.00,,,0.00,WUHU216HW,2013-03-07 23:27:00,
2013-03-07 18:32:00,52.9,32.6,30.07,North,0,0.0,0.0,46,0.00,,,0.00,WUHU216HW,2013-03-07 23:32:00,
2013-03-07 18:37:00,52.7,32.4,30.07,North,0,0.0,0.0,46,0.00,,,0.00,WUHU216HW,2013-03-07 23:37:00,
2013-03-07 18:42:00,52.6,32.2,30.07,North,0,0.0,0.0,46,0.00,,,0.00,WUHU216HW,2013-03-07 23:42:00,
2013-03-07 18:47:00,52.4,32.1,30.07,North,0,0.0,0.0,46,0.00,,,0.00,WUHU216HW,2013-03-07 23:47:00,
2013-03-07 18:52:00,52.2,32.5,30.07,North,0,0.0,0.0,47,0.00,,,0.00,WUHU216HW,2013-03-07 23:52:00,
2013-03-07 18:57:00,52.0,32.3,30.07,North,0,0.0,0.0,47,0.00,,,0.00,WUHU216HW,2013-03-07 23:57:00,
2013-03-07 19:02:00,51.7,32.1,30.07,North,0,0.0,0.0,47,0.00,,,0.00,WUHU216HW,2013-03-08 00:02:00,
2013-03-07 19:07:00,51.5,31.9,30.08,North,0,0.0,0.0,47,0.00,,,0.00,WUHU216HW,2013-03-08 00:07:00,
2013-03-07 19:12:00,51.1,31.5,30.08,North,0,0.0,0.0,47,0.00,,,0.00,WUHU216HW,2013-03-08 00:12:00,
2013-03-07 19:14:00,50.9,31.3,30.08,North,0,0.0,0.0,47,0.00,,,0.00,WUHU216HW,2013-03-08 00:14:00,
2013-03-07 19:17:00,50.9,31.3,30.08,North,0,0.0,0.0,47,0.00,,,0.00,WUHU216HW,2013-03-08 00:17:00,
2013-03-07 19:22:00,50.9,31.3,30.08,North,0,0.0,0.0,47,0.00,,,0.00,WUHU216HW,2013-03-08 00:22:00,
2013-03-07 20:00:00,49.9,30.3,30.10,North,0,0.0,0.0,47,0.00,,,0.00,WUHU216HW,2013-03-08 01:00:00,
2013-03-07 20:06:00,49.5,30.1,30.10,North,0,0.0,0.0,47,0.00,,,0.00,WUHU216HW,2013-03-08 01:06:00,
2013-03-07 20:11:00,49.0,29.5,30.10,North,0,0.0,0.0,47,0.00,,,0.00,WUHU216HW,2013-03-08 01:11:00,
2013-03-07 20:16:00,48.8,29.9,30.11,North,0,0.0,0.0,48,0.00,,,0.00,WUHU216HW,2013-03-08 01:16:00,
2013-03-07 20:21:00,48.6,29.7,30.11,North,0,0.0,0.0,48,0.00,,,0.00,WUHU216HW,2013-03-08 01:21:00,
2013-03-07 20:26:00,48.2,29.3,30.11,North,0,0.0,0.0,48,0.00,,,0.00,WUHU216HW,2013-03-08 01:26:00,
2013-03-07 20:31:00,47.9,29.0,30.12,North,0,0.0,0.0,48,0.00,,,0.00,WUHU216HW,2013-03-08 01:31:00,
2013-03-07 20:36:00,47.7,28.9,30.12,North,0,0.0,0.0,48,0.00,,,0.00,WUHU216HW,2013-03-08 01:36:00,
2013-03-07 20:41:00,47.3,28.5,30.12,North,0,0.0,0.0,48,0.00,,,0.00,WUHU216HW,2013-03-08 01:41:00,
2013-03-07 20:47:00,47.0,28.2,30.13,North,0,0.0,0.0,48,0.00,,,0.00,WUHU216HW,2013-03-08 01:47:00,
2013-03-07 20:52:00,46.6,27.9,30.13,North,0,0.0,0.0,48,0.00,,,0.00,WUHU216HW,2013-03-08 01:52:00,
2013-03-07 20:57:00,46.4,28.3,30.13,North,0,0.0,0.0,49,0.00,,,0.00,WUHU216HW,2013-03-08 01:57:00,
2013-03-07 21:02:00,46.1,27.9,30.13,North,0,0.0,0.0,49,0.00,,,0.00,WUHU216HW,2013-03-08 02:02:00,
2013-03-07 21:07:00,46.1,27.9,30.14,North,0,0.0,0.0,49,0.00,,,0.00,WUHU216HW,2013-03-08 02:07:00,
2013-03-07 21:12:00,45.9,27.8,30.14,North,0,0.0,0.0,49,0.00,,,0.00,WUHU216HW,2013-03-08 02:12:00,
2013-03-07 21:17:00,45.7,28.2,30.14,North,0,0.0,0.0,50,0.00,,,0.00,WUHU216HW,2013-03-08 02:17:00,
2013-03-07 21:22:00,45.4,27.8,30.14,North,0,0.0,0.0,50,0.00,,,0.00,WUHU216HW,2013-03-08 02:22:00,
2013-03-07 21:27:00,45.0,27.6,30.14,North,0,0.0,0.0,50,0.00,,,0.00,WUHU216HW,2013-03-08 02:27:00,
2013-03-07 21:32:00,44.6,27.2,30.14,North,0,0.0,0.0,50,0.00,,,0.00,WUHU216HW,2013-03-08 02:32:00,
2013-03-07 21:37:00,44.3,26.8,30.14,North,0,0.0,0.0,50,0.00,,,0.00,WUHU216HW,2013-03-08 02:37:00,
2013-03-07 21:42:00,44.1,27.2,30.14,North,0,0.0,0.0,51,0.00,,,0.00,WUHU216HW,2013-03-08 02:42:00,
2013-03-07 21:47:00,44.1,27.2,30.14,North,0,0.0,0.0,51,0.00,,,0.00,WUHU216HW,2013-03-08 02:47:00,
2013-03-07 21:52:00,43.9,27.0,30.14,North,0,0.0,0.0,51,0.00,,,0.00,WUHU216HW,2013-03-08 02:52:00,
2013-03-07 21:57:00,43.7,26.8,30.15,North,0,0.0,0.0,51,0.00,,,0.00,WUHU216HW,2013-03-08 02:57:00,
2013-03-07 22:02:00,43.6,27.1,30.15,North,0,0.0,0.0,52,0.00,,,0.00,WUHU216HW,2013-03-08 03:02:00,
2013-03-07 22:08:00,43.2,26.7,30.15,North,0,0.0,0.0,52,0.00,,,0.00,WUHU216HW,2013-03-08 03:08:00,
2013-03-07 22:13:00,43.0,26.6,30.15,North,0,0.0,0.0,52,0.00,,,0.00,WUHU216HW,2013-03-08 03:13:00,
2013-03-07 22:18:00,42.8,26.5,30.15,North,0,0.0,0.0,52,0.00,,,0.00,WUHU216HW,2013-03-08 03:18:00,
2013-03-07 22:23:00,42.8,26.5,30.16,North,0,0.0,0.0,52,0.00,,,0.00,WUHU216HW,2013-03-08 03:23:00,
2013-03-07 22:28:00,42.5,26.6,30.16,North,0,0.0,0.0,53,0.00,,,0.00,WUHU216HW,2013-03-08 03:28:00,
2013-03-07 22:33:00,42.3,25.9,30.16,North,0,0.0,0.0,52,0.00,,,0.00,WUHU216HW,2013-03-08 03:33:00,
2013-03-07 22:38:00,42.1,25.8,30.15,North,0,0.0,0.0,52,0.00,,,0.00,WUHU216HW,2013-03-08 03:38:00,
2013-03-07 22:43:00,41.9,25.6,30.15,North,0,0.0,0.0,52,0.00,,,0.00,WUHU216HW,2013-03-08 03:43:00,
2013-03-07 22:48:00,41.8,25.4,30.15,North,0,0.0,0.0,52,0.00,,,0.00,WUHU216HW,2013-03-08 03:48:00,
2013-03-07 22:54:00,41.8,25.8,30.15,North,0,0.0,0.0,53,0.00,,,0.00,WUHU216HW,2013-03-08 03:54:00,
2013-03-07 22:59:00,41.8,25.8,30.15,North,0,0.0,0.0,53,0.00,,,0.00,WUHU216HW,2013-03-08 03:59:00,
2013-03-07 23:04:00,41.6,25.7,30.15,North,0,0.0,0.0,53,0.00,,,0.00,WUHU216HW,2013-03-08 04:04:00,
2013-03-07 23:09:00,41.4,25.5,30.15,North,0,0.0,0.0,53,0.00,,,0.00,WUHU216HW,2013-03-08 04:09:00,
2013-03-07 23:14:00,41.4,25.5,30.15,North,0,0.0,0.0,53,0.00,,,0.00,WUHU216HW,2013-03-08 04:14:00,
2013-03-07 23:19:00,41.4,25.5,30.15,North,0,0.0,0.0,53,0.00,,,0.00,WUHU216HW,2013-03-08 04:19:00,
2013-03-07 23:24:00,41.2,25.3,30.15,North,0,0.0,0.0,53,0.00,,,0.00,WUHU216HW,2013-03-08 04:24:00,
2013-03-07 23:29:00,41.0,25.6,30.15,North,0,0.0,0.0,54,0.00,,,0.00,WUHU216HW,2013-03-08 04:29:00,
2013-03-07 23:34:00,40.9,25.4,30.15,North,0,0.0,0.0,54,0.00,,,0.00,WUHU216HW,2013-03-08 04:34:00,
2013-03-07 23:39:00,40.7,25.2,30.15,North,0,0.0,0.0,54,0.00,,,0.00,WUHU216HW,2013-03-08 04:39:00,
2013-03-07 23:44:00,40.7,25.2,30.15,North,0,0.0,0.0,54,0.00,,,0.00,WUHU216HW,2013-03-08 04:44:00,
2013-03-07 23:49:00,40.7,25.2,30.15,North,0,0.0,0.0,54,0.00,,,0.00,WUHU216HW,2013-03-08 04:49:00,
2013-03-07 23:54:00,40.5,25.0,30.15,North,0,0.0,0.0,54,0.00,,,0.00,WUHU216HW,2013-03-08 04:54:00,